Overview Statistics Trail Chart Weather Telemetry Raw packets
 

This is the latest recevied weather packets stored in our database for station/object IR3AS. If no packets are shown the sender has not sent any weather packets the latest 10 day(s).

<< 123 124 125 126 127 128 129 >>
Time Temp. Humidity Pressure Rain* Wind** Luminosity Snow
1787726404 15° C 68% 867.9 hPa 0 mm - - -
1787726104 15.56° C 67% 868.2 hPa 0 mm - - -
1787725804 15.56° C 66% 867.9 hPa 0 mm - - -
1787725504 16.11° C 65% 867.7 hPa 0 mm - - -
1787725204 15.56° C 64% 867.6 hPa 0 mm - - -
1787724904 15.56° C 63% 867.9 hPa 0 mm - - -
1787724604 15° C 63% 867.8 hPa 0 mm - - -
1787724304 14.44° C 66% 868.1 hPa 0 mm - - -
1787724004 13.89° C 67% 867.4 hPa 0 mm - - -
1787723704 13.89° C 66% 867.2 hPa 0 mm - - -
1787723405 14.44° C 66% 867 hPa 0 mm - - -
1787723104 14.44° C 67% 866.6 hPa 0 mm - - -
1787722804 13.89° C 67% 866.8 hPa 0 mm - - -
1787722504 13.89° C 66% 866.5 hPa 0 mm - - -
1787722204 13.89° C 70% 866.7 hPa 0 mm - - -
1787721904 13.33° C 71% 867.2 hPa 0 mm - - -
1787721604 13.33° C 75% 867.4 hPa 0 mm - - -
1787721304 12.78° C 77% 867.6 hPa 0 mm - - -
1787721004 12.78° C 77% 867.9 hPa 0 mm - - -
1787720764 12.78° C 77% 867.9 hPa 0 mm - - -
1787720704 12.78° C 77% 867.9 hPa 0 mm - - -
1787720408 12.22° C 77% 867.5 hPa 0 mm - - -
1787720105 12.22° C 78% 867.3 hPa 0 mm - - -
1787719804 11.67° C 78% 866.8 hPa 0 mm - - -
1787719504 11.67° C 77% 866.4 hPa 0 mm - - -

* Rain latest hour (hover to see other rain measurements)
** Current wind speed in m/s (hover to see current wind gust speed)